Flag for U.S.A. Weather past 2 weeks in Ontario, California, U.S.A.

Now
79 °F

Partly sunny.


Feels Like: 79 °F
Forecast: 54 / 79 °F
Wind: 12 mph from Northwest

Location: Ontario International Airport

Current Time: Mar 31, 2015 at 3:23:43 PM

Latest Report: Mar 31, 2015 at 1:53 PM


Visibility: 10 mi

Pressure: 29.93 "Hg

Humidity: 29%

Dew point: 44 °F

Location of OntarioLocation

Historic Weather in Ontario — Graph

°F

Ontario temperature yesterday

Maximum temperature yesterday: 85 °F (at 1:53 PM)
Minimum temperature yesterday: 57 °F (at 3:53 AM)
Average temperature yesterday: 70 °F

Past Weeks' High & Low Weather Summary

 TemperatureHumidityPressure
High92 °F (Mar 26, 2:53 PM)97% (Mar 21, 6:53 AM)30.18 "Hg (Mar 21, 6:53 AM)
Low53 °F (Mar 24, 5:53 AM)9% (Mar 26, 1:53 PM)29.84 "Hg (Mar 16, 2:53 PM)
Average68 °F50%30.00 "Hg
* Reported Mar 16 1:53 PM — Mar 31 1:53 PM, Ontario, Weather by CustomWeather, © 2015

Note: Actual official high and low records may vary slightly from our data, if they occured in-between our weather recording intervals... More about our weather records

Advertising

Ontario weather history for previous 24 hours

 ConditionsComfort  
Time TempWeatherWind HumidityBarometerVisibility
1:53 PM
Tue, Mar 31
79 °FPartly sunny.12 mph29%29.93 "Hg10 mi
12:53 PM77 °FOvercast.7 mph32%29.95 "Hg10 mi
11:53 AM75 °FPartly sunny.No wind34%29.97 "Hg7 mi
10:53 AM71 °FPartly sunny.5 mph45%29.99 "Hg6 mi
9:53 AM65 °FPartly sunny.3 mph66%29.99 "Hg6 mi
8:53 AM62 °FPartly sunny.3 mph73%29.98 "Hg8 mi
7:53 AM61 °FPartly sunny.No wind67%29.96 "Hg10 mi
6:53 AM56 °FFog.No wind75%29.95 "Hg10 mi
5:53 AM58 °FPassing clouds.No wind84%29.93 "Hg8 mi
4:53 AM58 °FClear.No wind84%29.93 "Hg9 mi
3:53 AM57 °FClear.No wind87%29.94 "Hg9 mi
2:53 AM57 °FClear.No wind87%29.95 "Hg8 mi
1:53 AM59 °FClear.No wind81%29.96 "Hg9 mi
12:53 AM61 °FClear.3 mph75%29.97 "Hg10 mi
11:53 PM
Mon, Mar 30
63 °FClear.5 mph73%29.97 "Hg10 mi
10:53 PM64 °FClear.No wind63%29.97 "Hg10 mi
9:53 PM66 °FClear.7 mph59%29.97 "Hg10 mi
8:53 PM69 °FClear.6 mph57%29.96 "Hg10 mi
7:53 PM71 °FPassing clouds.9 mph36%29.94 "Hg10 mi
6:53 PM75 °FPassing clouds.13 mph42%29.91 "Hg10 mi
5:53 PM80 °FSunny.14 mph34%29.90 "Hg10 mi
4:53 PM83 °FSunny.15 mph33%29.89 "Hg9 mi
3:53 PM85 °FPassing clouds.13 mph23%29.90 "Hg10 mi
Weather by CustomWeather, © 2015

See weather overviewHow to use our weather pages